Volver al catálogo

BREEZE-M DEB

ActivoHEO
NORAD 32025·DEBRIS·🇷🇺 Russia

Lanzado Feb 28, 2006 desde Baikonur Cosmodrome

Loading…

Próximos Pases (próximas 24 horas)

TLE

ActualizadoSource: Space-Track

Época: Sep 14, 2026, 05:42 UTC

1 32025U 06006C   26257.23766815  .00000477  00000-0  59995-3 0  9992
2 32025  51.6567  77.3428 5099711  89.3690 326.2977  5.26930203374675

Sigue BREEZE-M DEB en tiempo real con AllMySat

Download on the App Store